SPK408 KMCO-KLAX

Flight info

Callsign SPK408
Flight time N/A
Altitude 34000
Route RDSOX1 JFRYS PATOY Q116 JAWJA CABLO KT12M SARKK PLEBS CNX NABOB HIPPI GABBL HLYWD1
Aircraft B77L/H-L/S

Departure

Time N/A
Airport Orlando International Airport (KMCO)

Arrival

Time 2026-04-26 00:10
Airport Los Angeles International Airport (KLAX)
Time Latitude Longitude Altitude Speed Heading
2026-04-25 21:56 34.05820 -101.74039 37801 ft 390 kts 276°
2026-04-25 21:56 34.06438 -101.80574 37800 ft 390 kts 276°
2026-04-25 21:57 34.07048 -101.87065 37802 ft 389 kts 276°
2026-04-25 21:57 34.07653 -101.93554 37803 ft 389 kts 276°
2026-04-25 21:58 34.08251 -101.99998 37803 ft 389 kts 276°
2026-04-25 21:58 34.08851 -102.06494 37805 ft 390 kts 276°
2026-04-25 21:59 34.09447 -102.12990 37806 ft 389 kts 276°
2026-04-25 21:59 34.10039 -102.19484 37806 ft 389 kts 276°
2026-04-25 22:00 34.10922 -102.29228 37808 ft 389 kts 276°
2026-04-25 22:00 34.11506 -102.35727 37813 ft 389 kts 276°
2026-04-25 22:01 34.12086 -102.42225 37817 ft 390 kts 276°
2026-04-25 22:01 34.12567 -102.47639 37820 ft 390 kts 276°
2026-04-25 22:02 34.13239 -102.55254 37828 ft 390 kts 276°
2026-04-25 22:02 34.13812 -102.61768 37830 ft 390 kts 275°
2026-04-25 22:03 34.14379 -102.68287 37832 ft 390 kts 275°
2026-04-25 22:03 34.14944 -102.74803 37835 ft 390 kts 275°
2026-04-25 22:04 34.15507 -102.81318 37836 ft 390 kts 275°
2026-04-25 22:04 34.16063 -102.87836 37841 ft 390 kts 275°
2026-04-25 22:05 34.16618 -102.94356 37839 ft 390 kts 275°
2026-04-25 22:05 34.17167 -103.00875 37844 ft 390 kts 275°
2026-04-25 22:06 34.17714 -103.07395 37844 ft 390 kts 275°
2026-04-25 22:06 34.18253 -103.13861 37831 ft 390 kts 275°
2026-04-25 22:07 34.18705 -103.19315 37827 ft 389 kts 275°
2026-04-25 22:07 34.19329 -103.26880 37821 ft 390 kts 275°
2026-04-25 22:08 34.19861 -103.33393 37818 ft 390 kts 275°
2026-04-25 22:08 34.20390 -103.39904 37811 ft 389 kts 275°
2026-04-25 22:09 34.20915 -103.46411 37812 ft 389 kts 275°
2026-04-25 22:09 34.21436 -103.52910 37814 ft 389 kts 275°
2026-04-25 22:10 34.21954 -103.59410 37815 ft 388 kts 275°
2026-04-25 22:10 34.22467 -103.65900 37817 ft 388 kts 275°
2026-04-25 22:11 34.22976 -103.72387 37811 ft 388 kts 275°
2026-04-25 22:11 34.23479 -103.78876 37832 ft 388 kts 275°
2026-04-25 22:12 34.23985 -103.85380 37824 ft 389 kts 275°
2026-04-25 22:12 34.24401 -103.90796 37804 ft 389 kts 274°
2026-04-25 22:13 34.24980 -103.98358 37822 ft 389 kts 275°
2026-04-25 22:13 34.25474 -104.04852 37831 ft 387 kts 275°
2026-04-25 22:14 34.25964 -104.11333 37815 ft 387 kts 274°
2026-04-25 22:14 34.26451 -104.17866 37809 ft 388 kts 275°
2026-04-25 22:15 34.26935 -104.24373 37802 ft 389 kts 274°
2026-04-25 22:16 34.27652 -104.34078 37805 ft 388 kts 274°
2026-04-25 22:16 34.28125 -104.40589 37796 ft 389 kts 274°
2026-04-25 22:17 34.28596 -104.47110 37797 ft 389 kts 274°
2026-04-25 22:17 34.29064 -104.53629 37816 ft 389 kts 274°
2026-04-25 22:18 34.29529 -104.60142 37824 ft 389 kts 274°
2026-04-25 22:18 34.29990 -104.66665 37842 ft 389 kts 274°
2026-04-25 22:19 34.30448 -104.73183 37871 ft 390 kts 274°
2026-04-25 22:19 34.30904 -104.79720 37869 ft 390 kts 274°
2026-04-25 22:20 34.31356 -104.86261 37876 ft 390 kts 274°
2026-04-25 22:20 34.31805 -104.92796 37884 ft 390 kts 274°
2026-04-25 22:21 34.32249 -104.99322 37889 ft 389 kts 274°
2026-04-25 22:21 34.32690 -105.05845 37895 ft 389 kts 274°
2026-04-25 22:22 34.33127 -105.12373 37901 ft 389 kts 274°
2026-04-25 22:22 34.33561 -105.18903 37906 ft 389 kts 274°
2026-04-25 22:23 34.33992 -105.25432 37911 ft 389 kts 274°
2026-04-25 22:23 34.34438 -105.31963 37918 ft 389 kts 274°
2026-04-25 22:24 34.34876 -105.38493 37922 ft 389 kts 274°
2026-04-25 22:24 34.35290 -105.45021 37927 ft 389 kts 273°
2026-04-25 22:25 34.35696 -105.51543 37932 ft 389 kts 273°
2026-04-25 22:25 34.36099 -105.58065 37941 ft 389 kts 273°
2026-04-25 22:26 34.36503 -105.64585 37943 ft 388 kts 273°
2026-04-25 22:26 34.36857 -105.71100 37960 ft 388 kts 271°
2026-04-25 22:27 34.36950 -105.77625 37961 ft 388 kts 270°
2026-04-25 22:27 34.36982 -105.84152 37959 ft 388 kts 270°
2026-04-25 22:28 34.37035 -105.90677 37958 ft 387 kts 270°
2026-04-25 22:28 34.37098 -105.97192 37954 ft 387 kts 270°
2026-04-25 22:29 34.37163 -106.03702 37932 ft 387 kts 270°
2026-04-25 22:29 34.37232 -106.10175 37924 ft 387 kts 271°
2026-04-25 22:30 34.37396 -106.19945 37918 ft 387 kts 270°
2026-04-25 22:30 34.37471 -106.25403 37914 ft 387 kts 270°
2026-04-25 22:31 34.37563 -106.32979 37909 ft 388 kts 270°
2026-04-25 22:31 34.37634 -106.39508 37905 ft 388 kts 270°
2026-04-25 22:32 34.37700 -106.46042 37902 ft 388 kts 270°
2026-04-25 22:32 34.37762 -106.52568 37898 ft 388 kts 270°
2026-04-25 22:33 34.37820 -106.59097 37895 ft 388 kts 270°
2026-04-25 22:33 34.37875 -106.65629 37888 ft 388 kts 270°
2026-04-25 22:34 34.37925 -106.72165 37889 ft 388 kts 270°
2026-04-25 22:34 34.37973 -106.78698 37887 ft 388 kts 270°
2026-04-25 22:35 34.38016 -106.85225 37887 ft 388 kts 270°
2026-04-25 22:35 34.38057 -106.91753 37889 ft 388 kts 269°
2026-04-25 22:36 34.38093 -106.98282 37888 ft 388 kts 269°
2026-04-25 22:36 34.38127 -107.04800 37888 ft 387 kts 269°
2026-04-25 22:37 34.38157 -107.11315 37889 ft 387 kts 269°
2026-04-25 22:37 34.38183 -107.17832 37891 ft 387 kts 269°
2026-04-25 22:38 34.38206 -107.24345 37892 ft 387 kts 269°
2026-04-25 22:38 34.38226 -107.30850 37898 ft 386 kts 269°
2026-04-25 22:39 34.38239 -107.36250 37901 ft 386 kts 269°
2026-04-25 22:39 34.38252 -107.42743 37905 ft 385 kts 269°
2026-04-25 22:40 34.38262 -107.49226 37914 ft 385 kts 269°
2026-04-25 22:40 34.38268 -107.55699 37917 ft 384 kts 268°
2026-04-25 22:41 34.38271 -107.62169 37921 ft 384 kts 268°
2026-04-25 22:41 34.38271 -107.68631 37929 ft 384 kts 268°
2026-04-25 22:42 34.38267 -107.75084 37934 ft 383 kts 268°
2026-04-25 22:42 34.38260 -107.81536 37939 ft 383 kts 268°
2026-04-25 22:43 34.38249 -107.87978 37945 ft 383 kts 268°
2026-04-25 22:43 34.38235 -107.94420 37972 ft 383 kts 268°
2026-04-25 22:44 34.38218 -108.00824 37982 ft 383 kts 268°
2026-04-25 22:44 34.38197 -108.07272 37985 ft 383 kts 268°
2026-04-25 22:45 34.38173 -108.13724 37989 ft 383 kts 268°
2026-04-25 22:45 34.38145 -108.20168 37994 ft 383 kts 268°
2026-04-25 22:46 34.38114 -108.26615 37997 ft 383 kts 268°
2026-04-25 22:46 34.38080 -108.33056 38000 ft 383 kts 268°
2026-04-25 22:47 34.38042 -108.39512 38004 ft 384 kts 268°
2026-04-25 22:47 34.38001 -108.45969 38006 ft 384 kts 268°
2026-04-25 22:48 34.37957 -108.52434 38009 ft 384 kts 268°
2026-04-25 22:48 34.37909 -108.58904 38012 ft 385 kts 268°
2026-04-25 22:49 34.37857 -108.65384 38015 ft 385 kts 268°
2026-04-25 22:49 34.37802 -108.71867 38005 ft 385 kts 268°
2026-04-25 22:50 34.37744 -108.78356 38006 ft 386 kts 268°
2026-04-25 22:50 34.37682 -108.84845 38003 ft 386 kts 267°
2026-04-25 22:51 34.37617 -108.91346 38004 ft 386 kts 267°
2026-04-25 22:51 34.37548 -108.97855 38006 ft 387 kts 267°
2026-04-25 22:52 34.37475 -109.04361 38005 ft 387 kts 267°
2026-04-25 22:52 34.37413 -109.09767 38003 ft 386 kts 267°
2026-04-25 22:53 34.37321 -109.17371 37999 ft 387 kts 267°
2026-04-25 22:53 34.37238 -109.23877 37998 ft 387 kts 267°
2026-04-25 22:54 34.37152 -109.30384 37994 ft 387 kts 267°
2026-04-25 22:54 34.37063 -109.36844 37991 ft 387 kts 267°
2026-04-25 22:55 34.36970 -109.43347 37990 ft 386 kts 267°
2026-04-25 22:55 34.36874 -109.49852 37991 ft 386 kts 267°
2026-04-25 22:56 34.36774 -109.56358 37993 ft 387 kts 266°
2026-04-25 22:56 34.36671 -109.62860 37996 ft 387 kts 266°
2026-04-25 22:57 34.36564 -109.69368 37999 ft 387 kts 266°
2026-04-25 22:57 34.36454 -109.75872 38000 ft 387 kts 266°
2026-04-25 22:58 34.36340 -109.82379 38002 ft 387 kts 266°
2026-04-25 22:58 34.36223 -109.88882 38003 ft 387 kts 266°
2026-04-25 22:59 34.36103 -109.95387 38004 ft 387 kts 266°
2026-04-25 22:59 34.35979 -110.01889 38003 ft 387 kts 266°
2026-04-25 23:00 34.35851 -110.08394 37999 ft 387 kts 266°
2026-04-25 23:00 34.35721 -110.14898 37996 ft 387 kts 266°
2026-04-25 23:01 34.35587 -110.21401 37996 ft 387 kts 266°
2026-04-25 23:01 34.35449 -110.27903 37995 ft 387 kts 266°
2026-04-25 23:02 34.35308 -110.34411 37994 ft 387 kts 266°
2026-04-25 23:02 34.35163 -110.40933 37994 ft 388 kts 266°
2026-04-25 23:03 34.35014 -110.47454 37994 ft 388 kts 266°
2026-04-25 23:03 34.34863 -110.53972 37992 ft 388 kts 266°
2026-04-25 23:04 34.34734 -110.59396 37992 ft 388 kts 266°
2026-04-25 23:04 34.34548 -110.67034 37992 ft 388 kts 266°
2026-04-25 23:05 34.34386 -110.73568 37995 ft 389 kts 265°
2026-04-25 23:05 34.34219 -110.80114 37995 ft 389 kts 265°
2026-04-25 23:06 34.34049 -110.86665 37989 ft 389 kts 265°
2026-04-25 23:06 34.33881 -110.93211 37989 ft 389 kts 266°
2026-04-25 23:07 34.33732 -110.99768 37991 ft 390 kts 265°
2026-04-25 23:07 34.33550 -111.06286 37993 ft 390 kts 265°
2026-04-25 23:08 34.33356 -111.12853 37995 ft 390 kts 265°
2026-04-25 23:08 34.33159 -111.19414 37997 ft 390 kts 265°
2026-04-25 23:09 34.32961 -111.25972 37999 ft 390 kts 265°
2026-04-25 23:09 34.32889 -111.32540 38000 ft 392 kts 269°
2026-04-25 23:10 34.33434 -111.39108 37997 ft 393 kts 273°
2026-04-25 23:10 34.34227 -111.45657 37995 ft 394 kts 273°
2026-04-25 23:11 34.34994 -111.52224 37991 ft 394 kts 273°
2026-04-25 23:11 34.35721 -111.58794 37985 ft 394 kts 272°
2026-04-25 23:12 34.36428 -111.65366 37979 ft 394 kts 272°
2026-04-25 23:12 34.37125 -111.71942 37979 ft 394 kts 272°
2026-04-25 23:13 34.37859 -111.78518 37953 ft 394 kts 272°
2026-04-25 23:13 34.38582 -111.85100 37941 ft 394 kts 272°
2026-04-25 23:14 34.39288 -111.91681 37935 ft 394 kts 272°
2026-04-25 23:14 34.39986 -111.98266 37930 ft 394 kts 272°
2026-04-25 23:15 34.40677 -112.04851 37923 ft 394 kts 272°
2026-04-25 23:15 34.41364 -112.11443 37910 ft 395 kts 272°
2026-04-25 23:16 34.42048 -112.18047 37912 ft 395 kts 272°
2026-04-25 23:16 34.42728 -112.24649 37917 ft 395 kts 272°
2026-04-25 23:17 34.43405 -112.31249 37923 ft 395 kts 272°
2026-04-25 23:17 34.44079 -112.37863 37928 ft 396 kts 272°
2026-04-25 23:18 34.44751 -112.44491 37937 ft 397 kts 272°
2026-04-25 23:18 34.45420 -112.51132 37938 ft 397 kts 272°
2026-04-25 23:19 34.46086 -112.57774 37936 ft 397 kts 272°
2026-04-25 23:19 34.46749 -112.64424 37932 ft 398 kts 272°
2026-04-25 23:20 34.47405 -112.71046 37932 ft 399 kts 272°
2026-04-25 23:20 34.48063 -112.77720 37926 ft 399 kts 272°
2026-04-25 23:21 34.48719 -112.84413 37920 ft 400 kts 272°
2026-04-25 23:21 34.49373 -112.91119 37919 ft 401 kts 272°
2026-04-25 23:22 34.50023 -112.97828 37915 ft 401 kts 272°
2026-04-25 23:23 34.50993 -113.07912 37904 ft 401 kts 272°
2026-04-25 23:23 34.51636 -113.14642 37897 ft 402 kts 272°
2026-04-25 23:24 34.52276 -113.21385 37891 ft 403 kts 271°
2026-04-25 23:24 34.52932 -113.28132 37886 ft 403 kts 272°
2026-04-25 23:25 34.53473 -113.33745 37881 ft 403 kts 271°
2026-04-25 23:25 34.54099 -113.40512 37876 ft 404 kts 271°
2026-04-25 23:26 34.54817 -113.48387 37870 ft 404 kts 271°
2026-04-25 23:26 34.55334 -113.54072 37866 ft 405 kts 271°
2026-04-25 23:27 34.55949 -113.60855 37863 ft 404 kts 271°
2026-04-25 23:27 34.55907 -113.67621 37810 ft 401 kts 261°
2026-04-25 23:28 34.55178 -113.74329 37798 ft 401 kts 259°
2026-04-25 23:28 34.54383 -113.80962 37790 ft 400 kts 259°
2026-04-25 23:29 34.53617 -113.87638 37786 ft 400 kts 259°
2026-04-25 23:29 34.52857 -113.94320 37777 ft 400 kts 259°
2026-04-25 23:30 34.52097 -114.00998 37776 ft 400 kts 259°
2026-04-25 23:30 34.51251 -114.07669 37773 ft 400 kts 256°
2026-04-25 23:31 34.49918 -114.14221 37767 ft 400 kts 253°
2026-04-25 23:31 34.48425 -114.20715 37765 ft 400 kts 253°
2026-04-25 23:32 34.46990 -114.27221 37763 ft 400 kts 253°
2026-04-25 23:32 34.45582 -114.33735 37762 ft 400 kts 254°
2026-04-25 23:33 34.44178 -114.40257 37759 ft 401 kts 253°
2026-04-25 23:33 34.42776 -114.46793 37760 ft 401 kts 254°
2026-04-25 23:34 34.41404 -114.53349 37756 ft 402 kts 254°
2026-04-25 23:34 34.40042 -114.59865 37756 ft 402 kts 254°
2026-04-25 23:35 34.38636 -114.66409 37761 ft 402 kts 253°
2026-04-25 23:35 34.37212 -114.72951 37763 ft 402 kts 253°
2026-04-25 23:36 34.35784 -114.79492 37757 ft 402 kts 253°
2026-04-25 23:36 34.34354 -114.86030 37759 ft 402 kts 253°
2026-04-25 23:37 34.32923 -114.92578 37765 ft 403 kts 253°
2026-04-25 23:37 34.31506 -114.99136 37768 ft 403 kts 253°
2026-04-25 23:38 34.30060 -115.05700 37771 ft 404 kts 253°
2026-04-25 23:38 34.28606 -115.12265 37776 ft 404 kts 253°
2026-04-25 23:39 34.27151 -115.18828 37784 ft 404 kts 253°
2026-04-25 23:39 34.25713 -115.25403 37789 ft 405 kts 253°
2026-04-25 23:40 34.24319 -115.31983 37795 ft 404 kts 253°
2026-04-25 23:40 34.22947 -115.38569 37800 ft 404 kts 253°
2026-04-25 23:41 34.21539 -115.45139 37805 ft 404 kts 253°
2026-04-25 23:41 34.20129 -115.51665 37811 ft 404 kts 253°
2026-04-25 23:42 34.18695 -115.58281 37817 ft 404 kts 253°
2026-04-25 23:42 34.17298 -115.64726 37817 ft 389 kts 253°
2026-04-25 23:42 34.16627 -115.67828 37817 ft 374 kts 253°
2026-04-25 23:43 34.16108 -115.70861 37817 ft 365 kts 257°
2026-04-25 23:43 34.15532 -115.76948 37819 ft 370 kts 261°
2026-04-25 23:43 34.15295 -115.80085 37758 ft 381 kts 260°
2026-04-25 23:44 34.15012 -115.83325 37538 ft 395 kts 259°
2026-04-25 23:44 34.14688 -115.86687 36975 ft 413 kts 259°
2026-04-25 23:44 34.14346 -115.90162 36261 ft 418 kts 259°
2026-04-25 23:44 34.14019 -115.93635 35554 ft 416 kts 260°
2026-04-25 23:45 34.13695 -115.97097 34870 ft 414 kts 259°
2026-04-25 23:45 34.13361 -116.00543 34215 ft 412 kts 259°
2026-04-25 23:45 34.13024 -116.03962 33682 ft 408 kts 259°
2026-04-25 23:45 34.12686 -116.07353 33146 ft 405 kts 259°
2026-04-25 23:46 34.12349 -116.10715 32620 ft 402 kts 259°
2026-04-25 23:46 34.12014 -116.14054 32114 ft 399 kts 260°
2026-04-25 23:46 34.11681 -116.17366 31613 ft 396 kts 260°
2026-04-25 23:46 34.11350 -116.20656 31132 ft 393 kts 260°
2026-04-25 23:47 34.11022 -116.23918 30653 ft 390 kts 261°
2026-04-25 23:47 34.10697 -116.27155 30168 ft 388 kts 261°
2026-04-25 23:47 34.10374 -116.30372 29689 ft 385 kts 261°
2026-04-25 23:47 34.10048 -116.33568 29178 ft 383 kts 261°
2026-04-25 23:48 34.09713 -116.36737 28670 ft 380 kts 261°
2026-04-25 23:48 34.09374 -116.39890 28164 ft 378 kts 260°
2026-04-25 23:48 34.09035 -116.43024 27659 ft 375 kts 260°
2026-04-25 23:48 34.08698 -116.46131 27164 ft 373 kts 260°
2026-04-25 23:49 34.08361 -116.49225 26663 ft 371 kts 260°
2026-04-25 23:49 34.08027 -116.52296 26177 ft 368 kts 260°
2026-04-25 23:49 34.07696 -116.55334 25924 ft 360 kts 260°
2026-04-25 23:49 34.07377 -116.58272 25853 ft 347 kts 260°
2026-04-25 23:50 34.07080 -116.61141 25581 ft 344 kts 261°
2026-04-25 23:50 34.06827 -116.64021 25091 ft 346 kts 262°
2026-04-25 23:50 34.06574 -116.66936 24641 ft 355 kts 261°
2026-04-25 23:50 34.06300 -116.69948 24184 ft 364 kts 261°
2026-04-25 23:51 34.06018 -116.72974 23728 ft 363 kts 261°
2026-04-25 23:51 34.05733 -116.75992 23263 ft 361 kts 261°
2026-04-25 23:51 34.05449 -116.78992 22808 ft 358 kts 261°
2026-04-25 23:51 34.05167 -116.81965 22352 ft 356 kts 261°
2026-04-25 23:52 34.04886 -116.84921 21902 ft 353 kts 261°
2026-04-25 23:52 34.04608 -116.87856 21456 ft 351 kts 261°
2026-04-25 23:52 34.04319 -116.90765 21013 ft 348 kts 260°
2026-04-25 23:52 34.03950 -116.93640 20569 ft 346 kts 258°
2026-04-25 23:53 34.03544 -116.96482 20130 ft 343 kts 258°
2026-04-25 23:53 34.03161 -116.99312 19688 ft 341 kts 258°
2026-04-25 23:53 34.02793 -117.02129 19247 ft 339 kts 258°
2026-04-25 23:53 34.02435 -117.04933 18804 ft 337 kts 259°
2026-04-25 23:54 34.02114 -117.07727 18361 ft 336 kts 259°
2026-04-25 23:54 34.01794 -117.10505 17918 ft 334 kts 259°
2026-04-25 23:54 34.01468 -117.13271 17470 ft 333 kts 259°
2026-04-25 23:54 34.01144 -117.15986 17030 ft 331 kts 259°
2026-04-25 23:55 34.00812 -117.18759 16585 ft 329 kts 259°
2026-04-25 23:55 34.00489 -117.21447 16152 ft 328 kts 259°
2026-04-25 23:55 34.00165 -117.24155 15717 ft 326 kts 259°
2026-04-25 23:55 33.99842 -117.26853 15275 ft 324 kts 259°
2026-04-25 23:56 33.99520 -117.29530 14857 ft 322 kts 259°
2026-04-25 23:56 33.99199 -117.32188 14428 ft 319 kts 260°
2026-04-25 23:56 33.98894 -117.34831 14008 ft 317 kts 260°
2026-04-25 23:56 33.98592 -117.37452 13583 ft 316 kts 260°
2026-04-25 23:57 33.98285 -117.40066 13154 ft 314 kts 260°
2026-04-25 23:57 33.97976 -117.42665 12730 ft 313 kts 260°
2026-04-25 23:57 33.97670 -117.45253 12320 ft 311 kts 260°
2026-04-25 23:57 33.97442 -117.47802 12188 ft 301 kts 265°
2026-04-25 23:58 33.97500 -117.50293 12014 ft 298 kts 273°
2026-04-25 23:58 33.97823 -117.52771 11615 ft 300 kts 278°
2026-04-25 23:58 33.98290 -117.55226 11243 ft 301 kts 281°
2026-04-25 23:58 33.98787 -117.57676 10853 ft 301 kts 281°
2026-04-25 23:59 33.99259 -117.60145 10479 ft 303 kts 280°
2026-04-25 23:59 33.99695 -117.62627 10199 ft 301 kts 280°
2026-04-25 23:59 34.00121 -117.65058 10106 ft 291 kts 280°
2026-04-25 23:59 34.00501 -117.67407 10044 ft 280 kts 277°
2026-04-26 00:00 34.00668 -117.69696 9966 ft 270 kts 268°
2026-04-26 00:00 34.00545 -117.71938 9691 ft 268 kts 263°
2026-04-26 00:00 34.00274 -117.74155 9387 ft 267 kts 259°
2026-04-26 00:00 33.99896 -117.76351 9081 ft 269 kts 259°
2026-04-26 00:01 33.99618 -117.78584 8780 ft 270 kts 262°
2026-04-26 00:01 33.99412 -117.80837 8484 ft 272 kts 264°
2026-04-26 00:01 33.99261 -117.83123 8192 ft 282 kts 264°
2026-04-26 00:01 33.99059 -117.85508 7885 ft 282 kts 262°
2026-04-26 00:02 33.98820 -117.87848 7574 ft 281 kts 262°
2026-04-26 00:02 33.98553 -117.90174 7263 ft 280 kts 261°
2026-04-26 00:02 33.98303 -117.92503 6949 ft 280 kts 262°
2026-04-26 00:02 33.98110 -117.94829 6640 ft 279 kts 263°
2026-04-26 00:03 33.97910 -117.97123 6335 ft 278 kts 262°
2026-04-26 00:03 33.97693 -117.99437 6015 ft 274 kts 262°
2026-04-26 00:03 33.97477 -118.01630 5716 ft 254 kts 261°
2026-04-26 00:03 33.97269 -118.03703 5452 ft 246 kts 261°
2026-04-26 00:04 33.97057 -118.05790 5221 ft 255 kts 261°
2026-04-26 00:04 33.96845 -118.07884 5067 ft 251 kts 261°
2026-04-26 00:04 33.96635 -118.09938 4687 ft 240 kts 261°
2026-04-26 00:04 33.96438 -118.11866 4381 ft 224 kts 261°
2026-04-26 00:05 33.96252 -118.13689 4075 ft 216 kts 260°
2026-04-26 00:05 33.96070 -118.15465 3787 ft 210 kts 260°
2026-04-26 00:05 33.95898 -118.17156 3518 ft 197 kts 260°
2026-04-26 00:05 33.95734 -118.18751 3304 ft 191 kts 259°
2026-04-26 00:06 33.95573 -118.20326 3029 ft 188 kts 259°
2026-04-26 00:06 33.95422 -118.21806 2799 ft 191 kts 260°
2026-04-26 00:06 33.95260 -118.23387 2560 ft 189 kts 260°
2026-04-26 00:06 33.95100 -118.24949 2295 ft 185 kts 261°
2026-04-26 00:07 33.94947 -118.26446 2049 ft 175 kts 261°
2026-04-26 00:07 33.94803 -118.27853 1823 ft 163 kts 261°
2026-04-26 00:07 33.94670 -118.29155 1601 ft 153 kts 261°
2026-04-26 00:07 33.94542 -118.30401 1438 ft 147 kts 261°
2026-04-26 00:08 33.94418 -118.31615 1255 ft 145 kts 262°
2026-04-26 00:08 33.94296 -118.32812 1032 ft 143 kts 263°
2026-04-26 00:08 33.94174 -118.34000 839 ft 142 kts 263°
2026-04-26 00:08 33.94054 -118.35179 648 ft 141 kts 263°
2026-04-26 00:09 33.93935 -118.36341 463 ft 139 kts 263°
2026-04-26 00:09 33.93817 -118.37493 289 ft 137 kts 263°
2026-04-26 00:09 33.93699 -118.38643 150 ft 133 kts 263°
2026-04-26 00:09 33.93599 -118.39622 140 ft 101 kts 263°
2026-04-26 00:10 33.93528 -118.40314 140 ft 65 kts 263°
2026-04-26 00:10 33.93487 -118.40714 140 ft 35 kts 263°
2026-04-26 00:10 33.93478 -118.40970 140 ft 28 kts 280°
2026-04-26 00:10 33.93529 -118.41161 140 ft 16 kts 296°
2026-04-26 00:11 33.93546 -118.41202 140 ft 0 kts 297°
2026-04-26 00:11 33.93560 -118.41229 140 ft 9 kts 306°
2026-04-26 00:11 33.93615 -118.41278 140 ft 7 kts 359°
2026-04-26 00:11 33.93686 -118.41285 140 ft 11 kts 354°
2026-04-26 00:12 33.93744 -118.41275 140 ft 6 kts 53°
2026-04-26 00:12 33.93752 -118.41228 140 ft 7 kts 83°
2026-04-26 00:12 33.93759 -118.41167 140 ft 15 kts 82°
2026-04-26 00:12 33.93771 -118.41049 140 ft 14 kts 84°
2026-04-26 00:13 33.93782 -118.40939 140 ft 13 kts 83°
2026-04-26 00:13 33.93793 -118.40836 140 ft 12 kts 83°
2026-04-26 00:13 33.93804 -118.40739 140 ft 11 kts 83°
2026-04-26 00:13 33.93813 -118.40649 140 ft 10 kts 83°
2026-04-26 00:14 33.93822 -118.40565 140 ft 10 kts 83°
2026-04-26 00:14 33.93830 -118.40486 140 ft 9 kts 83°
2026-04-26 00:14 33.93838 -118.40410 140 ft 9 kts 83°
2026-04-26 00:14 33.93846 -118.40339 140 ft 8 kts 83°
2026-04-26 00:15 33.93853 -118.40272 140 ft 8 kts 83°
2026-04-26 00:15 33.93859 -118.40208 140 ft 7 kts 83°
2026-04-26 00:15 33.93864 -118.40149 140 ft 7 kts 83°
2026-04-26 00:15 33.93870 -118.40090 140 ft 9 kts 83°
2026-04-26 00:16 33.93909 -118.40056 140 ft 8 kts 342°
2026-04-26 00:16 33.93953 -118.40053 140 ft 6 kts 28°
2026-04-26 00:16 33.93988 -118.40024 140 ft 6 kts 35°
2026-04-26 00:16 33.94017 -118.40000 140 ft 2 kts 31°
2026-04-26 00:17 33.94026 -118.39993 140 ft 1 kts 32°
2026-04-26 00:17 33.94032 -118.39989 140 ft 0 kts 32°